[[{"header":{"parameterUnit":"m.s-1","parameterCategory":2,"la1":30.2991,"la2":30.254,"lo1":-89.0895,"lo2":-89.0444,"dy":0.0017,"dx":0.0017,"nx":28,"ny":28,"refTime":"2025-08-05T03:00:00:Z","depth":"0","parameterNumber":2,"parameterNumberName":"U-component_of_CURRENTS"},"data":[0,0,0,0,0,0,0,0,0,0,0,0,0,0,0,0,0,0,0,0,0,0,0,0,0,0,0,0,0,0,0,0,0,0,0,0,0,0,0,0,0,0,0,0,0,0,0,0,0,0,0,0,0,0,0,0,0,0,0.3384,0.3384,0,0.3365,0.3364,0.3364,0.3329,0.3329,0.3328,0.3328,0.3301,0.3301,0.33,0,0,0,0,0,0,0,0,0,0,0,0,0,0.3426,0.3425,0.3384,0.3384,0.3384,0.3365,0.3364,0.3364,0.3329,0.3329,0.3328,0.3327,0.3301,0.3301,0.33,0,0,0,0,0,0,0,0,0,0,0,0,0,0.3405,0.3425,0.3384,0.3366,0.3364,0.3365,0.3364,0.3364,0.3329,0.3329,0.3328,0.3327,0.3301,0.3301,0.33,0.3312,0,0,0.3299,0.3299,0,0,0,0,0,0,0,0,0.3407,0.3404,0.3368,0.3367,0.3365,0.335,0.337,0.3347,0.3329,0.334,0.3328,0.3327,0.3319,0.3317,0.3312,0.3311,0.331,0.3299,0.3299,0.3299,0.3299,0,0,0,0,0,0,0,0.3408,0.3404,0.3374,0.3368,0.3366,0.3371,0.3367,0.3365,0.3332,0.3339,0.3337,0.3339,0.3317,0.3312,0.3311,0.3309,0.3299,0.3299,0.3298,0.3298,0.3361,0.3363,0,0,0,0,0,0,0.3413,0.3406,0.3375,0.3374,0.3387,0.3371,0.3366,0.3354,0.3332,0.3329,0.3339,0.3337,0.3313,0.3312,0.331,0.3358,0.3299,0.3298,0.3298,0.336,0.3362,0.3364,0,0,0,0,0,0,0.3414,0.341,0.3375,0.3392,0.3388,0.3371,0.3358,0.3354,0.3353,0.3333,0.3328,0.3343,0.3313,0.3311,0.3323,0.3355,0.3298,0.3298,0.3357,0.336,0.3363,0.3432,0,0,0,0,0,0,0.3415,0.341,0.3407,0.3392,0.3387,0.3384,0.3359,0.3354,0.3356,0.3353,0.3335,0.3331,0.3312,0.3324,0.3322,0.3354,0.3297,0.3355,0.3359,0.3362,0.3427,0.3437,0.3445,0,0,0,0,0,0.3417,0.3412,0.3406,0.3403,0.3381,0.3385,0.3383,0.3367,0.3357,0.3363,0.3356,0.3332,0.3346,0.3325,0.3323,0.3355,0.3353,0.3358,0.3362,0.3423,0.3435,0.3445,0,0,0,0,0,0,0.3426,0.3408,0.3401,0.339,0.3393,0.338,0.3382,0.3376,0.3374,0.3372,0.335,0.3347,0.3372,0.3358,0.3335,0.3386,0.3349,0.3353,0.3396,0.3407,0.3416,0.3438,0.3297,0,0,0,0,0,0.3429,0.342,0.3412,0.3406,0.3408,0.3399,0.34,0.3394,0.339,0.3387,0.3376,0.3375,0.3389,0.3392,0.3394,0.3418,0.3442,0.3441,0.345,0.3457,0.3477,0.3552,0.357,0.3378,0.3378,0.3378,0,0,0.343,0.3422,0.3414,0.3409,0.3406,0.342,0.3397,0.3404,0.3422,0.3387,0.3404,0.3403,0.3403,0.3432,0.3443,0.3422,0.3525,0.3463,0.3469,0.3485,0.3558,0.3577,0.3594,0.3381,0.3381,0.338,0,0,0.3435,0.3423,0.3421,0.3429,0.3435,0.3438,0.3445,0.3441,0.3445,0.3466,0.3455,0.3481,0.348,0.3499,0.3508,0.3571,0.357,0.3567,0.3628,0.3701,0.3718,0.3733,0.3789,0.3808,0.3571,0.3571,0.3571,0,0.3441,0.3432,0.3425,0.3436,0.3445,0.3451,0.3465,0.3481,0.3484,0.3502,0.348,0.3527,0.3521,0.3583,0.3605,0.3593,0.3628,0.3583,0.3714,0.3729,0.3743,0.3797,0.3818,0.3575,0.3575,0.3574,0.3574,0,0.3446,0.3449,0.3453,0.3468,0.3482,0.3495,0.3518,0.3543,0.3551,0.3567,0.3621,0.3624,0.3655,0.3662,0.3651,0.3751,0.3741,0.3717,0.3686,0.3767,0.3818,0.3839,0.358,0.3579,0.3578,0.3577,0,0,0.3426,0.3451,0.3451,0.3465,0.3497,0.3508,0.356,0.3605,0.3658,0.3669,0.3745,0.3765,0.3773,0.3786,0.3784,0.3847,0.3972,0.3829,0.3831,0.3885,0.4134,0.4046,0.4059,0.3972,0.3976,0.3979,0.4131,0,0.3431,0.345,0.3467,0.3501,0.3513,0.3551,0.3602,0.3652,0.3701,0.3784,0.3817,0.3882,0.382,0.3856,0.3907,0.3972,0.4029,0.3933,0.4049,0.4053,0.3964,0.4081,0.391,0.4024,0.415,0.4154,0.4156,0,0.3418,0.3438,0.3459,0.3517,0.3528,0.3557,0.3647,0.3702,0.3826,0.3873,0.3945,0.3984,0.4086,0.4027,0.4156,0.41,0.4123,0.4157,0.4163,0.4073,0.4002,0.3965,0.4056,0.3947,0.4187,0.4184,0.4182,0,0.3381,0.3428,0.3443,0.3458,0.353,0.3557,0.361,0.3717,0.38,0.395,0.4045,0.413,0.4213,0.4265,0.4302,0.4255,0.4452,0.4391,0.4327,0.4321,0.4195,0.4169,0.4193,0.4486,0.4486,0.4485,0.4485,0,0.3361,0.3375,0.3425,0.3432,0.3484,0.3539,0.3633,0.3708,0.3866,0.3991,0.4087,0.4198,0.4283,0.4386,0.4388,0.4428,0.4512,0.4375,0.437,0.4211,0.4187,0.4098,0.4048,0.4491,0.449,0.4489,0.4488,0,0.3306,0.3336,0.3365,0.3435,0.346,0.3497,0.3642,0.3736,0.3879,0.4063,0.4126,0.4302,0.4425,0.4489,0.4603,0.4539,0.4458,0.4565,0.4364,0.4331,0.4126,0.4084,0.3979,0.3863,0.4535,0.4534,0.4533,0,0.3275,0.3281,0.3351,0.3388,0.3417,0.3495,0.3572,0.3718,0.3829,0.4103,0.4192,0.4383,0.4475,0.461,0.4555,0.4567,0.4432,0.4404,0.4268,0.4126,0.4079,0.3914,0.3812,0.4139,0.4135,0.4131,0.4129,0,0.3237,0.326,0.3298,0.3375,0.3439,0.3511,0.3622,0.3704,0.3905,0.4044,0.4208,0.4312,0.4448,0.438,0.4412,0.4383,0.4185,0.4333,0.4254,0.3838,0.3597,0.3477,0.4024,0.4099,0.4102,0.4104,0.4106,0.4107,0.3221,0.3248,0.3315,0.3374,0.3444,0.35,0.3518,0.3646,0.3769,0.3906,0.4079,0.4126,0.4197,0.4199,0.4159,0.3982,0.3962,0.384,0.3828,0.3695,0.349,0.3962,0.3977,0.3979,0.3981,0.3982,0.3984,0,0.3221,0.3265,0.3325,0.3378,0.3399,0.3453,0.3536,0.352,0.3568,0.3692,0.3762,0.3775,0.3751,0.3778,0.3674,0.3502,0.334,0.341,0.3157,0.3102,0.3599,0.3486,0.331,0.331,0.331,0.331,0.331,0.331,0.3238,0.3284,0.3307,0.3313,0.3331,0.3294,0.3292,0.3266,0.329,0.3241,0.3198,0.325,0.341,0.3434,0.3254,0.3166,0.2929,0.2781,0.2794,0.3167,0.3206,0.3242,0.3125,0.2876,0.2875,0.215,0.2144,0.214]},{"header":{"parameterUnit":"m.s-1","parameterCategory":2,"la1":30.2991,"la2":30.254,"lo1":-89.0895,"lo2":-89.0444,"dy":0.0017,"dx":0.0017,"nx":28,"ny":28,"refTime":"2025-08-05T03:00:00:Z","depth":"0","parameterNumber":3,"parameterNumberName":"V-component_of_CURRENTS"},"data":[0,0,0,0,0,0,0,0,0,0,0,0,0,0,0,0,0,0,0,0,0,0,0,0,0,0,0,0,0,0,0,0,0,0,0,0,0,0,0,0,0,0,0,0,0,0,0,0,0,0,0,0,0,0,0,0,0,0,0.027,0.027,0,0.0232,0.0232,0.0231,0.0203,0.0203,0.0202,0.0202,0.0153,0.0151,0.015,0,0,0,0,0,0,0,0,0,0,0,0,0,0.0276,0.0277,0.027,0.027,0.027,0.0232,0.0231,0.0231,0.0203,0.0203,0.0202,0.0202,0.0153,0.0152,0.015,0,0,0,0,0,0,0,0,0,0,0,0,0,0.0258,0.0277,0.027,0.0252,0.025,0.0232,0.0231,0.0231,0.0203,0.0203,0.0202,0.0202,0.0153,0.0152,0.015,0.0143,0,0,0.0144,0.0144,0,0,0,0,0,0,0,0,0.026,0.0258,0.0255,0.0253,0.0251,0.0223,0.0215,0.0201,0.0203,0.0219,0.0202,0.0202,0.0176,0.0172,0.0164,0.014,0.0138,0.0144,0.0143,0.0142,0.0142,0,0,0,0,0,0,0,0.0261,0.0259,0.0254,0.0255,0.0252,0.0231,0.0229,0.0212,0.0198,0.0218,0.0216,0.0214,0.0175,0.0166,0.0163,0.0137,0.0144,0.0143,0.0142,0.0141,0.0115,0.0115,0,0,0,0,0,0,0.0271,0.0261,0.0255,0.0253,0.0256,0.0232,0.0229,0.0231,0.0198,0.0194,0.0214,0.0213,0.0169,0.0165,0.0161,0.0173,0.0142,0.0141,0.014,0.0115,0.0115,0.0115,0,0,0,0,0,0,0.0271,0.0271,0.0257,0.0256,0.0253,0.0232,0.0235,0.0231,0.0225,0.0196,0.0191,0.0214,0.0169,0.0163,0.0151,0.017,0.014,0.0138,0.0114,0.0115,0.0115,0.0184,0,0,0,0,0,0,0.0271,0.0271,0.0275,0.0258,0.0254,0.0256,0.0235,0.023,0.0225,0.0222,0.0194,0.0189,0.0168,0.0154,0.0149,0.0167,0.0137,0.0114,0.0114,0.0115,0.0181,0.0187,0.0191,0,0,0,0,0,0.0272,0.0284,0.0275,0.0274,0.026,0.0257,0.0253,0.0236,0.0225,0.0229,0.0206,0.019,0.0156,0.0153,0.0147,0.0165,0.0113,0.0114,0.0115,0.0179,0.0185,0.0191,0,0,0,0,0,0,0.0285,0.0281,0.0272,0.0281,0.0273,0.0253,0.0253,0.0241,0.0226,0.0222,0.0193,0.0187,0.0182,0.0162,0.016,0.0158,0.0132,0.0132,0.0183,0.0189,0.0194,0.0217,0.0135,0,0,0,0,0,0.0291,0.0299,0.0289,0.0294,0.0293,0.0273,0.0268,0.0258,0.0243,0.0236,0.0216,0.0195,0.018,0.0176,0.0156,0.0157,0.0141,0.0164,0.017,0.0174,0.0188,0.0177,0.0183,0.0118,0.0118,0.0118,0,0,0.0295,0.0295,0.0298,0.0297,0.0288,0.03,0.027,0.0269,0.0282,0.0233,0.024,0.0209,0.0182,0.0182,0.0179,0.017,0.0182,0.0175,0.018,0.0191,0.0179,0.0185,0.0191,0.0119,0.0119,0.0119,0,0,0.0319,0.0311,0.033,0.033,0.0326,0.0317,0.0321,0.0306,0.0304,0.0303,0.0271,0.0253,0.0233,0.0219,0.021,0.0232,0.0206,0.0224,0.0277,0.0266,0.0272,0.0277,0.0261,0.0264,0.0233,0.0233,0.0234,0,0.0325,0.0351,0.0333,0.0355,0.0366,0.0331,0.036,0.0351,0.0335,0.0343,0.0316,0.0289,0.0254,0.0267,0.0267,0.0246,0.0234,0.0258,0.0275,0.0279,0.0283,0.0265,0.0268,0.0237,0.0236,0.0236,0.0236,0,0.0368,0.0388,0.0399,0.0419,0.0426,0.0442,0.0435,0.0437,0.0424,0.0417,0.0419,0.037,0.0357,0.034,0.0308,0.0323,0.0303,0.0279,0.0264,0.0294,0.0273,0.0274,0.0242,0.0241,0.024,0.0239,0,0,0.0389,0.0426,0.043,0.0461,0.0467,0.0482,0.0503,0.0523,0.0554,0.0517,0.056,0.0503,0.0469,0.0456,0.0412,0.0398,0.0396,0.0355,0.0352,0.0348,0.0374,0.0347,0.0345,0.0378,0.0379,0.038,0.0348,0,0.0432,0.0498,0.05,0.056,0.0598,0.0583,0.0616,0.0625,0.0623,0.065,0.06,0.0615,0.0518,0.0522,0.0484,0.0431,0.0403,0.0407,0.0338,0.0336,0.0315,0.0347,0.0363,0.0336,0.0349,0.0349,0.0349,0,0.0478,0.0523,0.0595,0.0659,0.0674,0.0698,0.0753,0.0782,0.0797,0.08,0.0785,0.0749,0.0721,0.0639,0.0546,0.0555,0.0464,0.0411,0.0408,0.0363,0.0311,0.0307,0.0337,0.0191,0.035,0.035,0.035,0,0.0522,0.0589,0.0657,0.0676,0.0735,0.0765,0.0797,0.0826,0.0886,0.0907,0.0956,0.0886,0.0886,0.0768,0.0624,0.0594,0.053,0.0473,0.036,0.0356,0.0347,0.0342,0.0238,0.0402,0.0402,0.0402,0.0402,0,0.0576,0.0628,0.0683,0.0721,0.0814,0.083,0.0929,0.0947,0.1014,0.1119,0.1041,0.1106,0.0921,0.0855,0.0691,0.0539,0.0572,0.0381,0.0353,0.037,0.0367,0.022,0.0125,0.0401,0.0401,0.0402,0.0402,0,0.0616,0.0647,0.0733,0.0808,0.0838,0.0907,0.1026,0.1109,0.1153,0.1292,0.1317,0.1283,0.1201,0.1007,0.0832,0.0649,0.0409,0.0428,0.0455,0.043,0.017,0.0079,-0.0067,-0.0132,0.03,0.03,0.0299,0,0.0645,0.0693,0.0799,0.0865,0.0902,0.1009,0.11,0.1171,0.1277,0.1418,0.1503,0.1464,0.147,0.1188,0.0865,0.0585,0.0409,0.0391,0.0321,0.0171,0.0049,-0.0025,-0.0074,0.0332,0.0332,0.0332,0.0331,0,0.0707,0.0738,0.0813,0.0952,0.1052,0.1182,0.1314,0.1418,0.1543,0.1677,0.1827,0.185,0.1583,0.1306,0.0892,0.0678,0.0288,0.0375,0.0222,0.007,-0.0016,-0.0096,0.0329,0.0329,0.0329,0.033,0.033,0.033,0.0752,0.0818,0.092,0.1052,0.1176,0.1341,0.1465,0.1633,0.1833,0.2049,0.2048,0.2122,0.1706,0.1149,0.0834,0.0274,0.0259,0.0103,0.0007,-0.0052,-0.0124,0.0291,0.0255,0.0255,0.0254,0.0254,0.0254,0,0.082,0.0898,0.1021,0.118,0.1327,0.1381,0.1607,0.1757,0.2012,0.2197,0.2332,0.217,0.1663,0.1123,0.0367,-0.0016,-0.0158,-0.0219,-0.0316,-0.0348,0.0032,0.0024,-0.0063,-0.0063,-0.0063,-0.0063,-0.0063,-0.0063,0.086,0.0982,0.1045,0.1279,0.1398,0.1605,0.1739,0.1974,0.2145,0.2381,0.2431,0.2423,0.2015,0.0702,-0.015,-0.0338,-0.06,-0.0665,-0.0788,-0.0531,-0.0508,-0.0486,-0.0515,-0.0714,-0.0715,-0.1107,-0.1111,-0.1114]}],[{"header":{"parameterUnit":"m.s-1","parameterCategory":2,"la1":30.2991,"la2":30.254,"lo1":-89.0895,"lo2":-89.0444,"dy":0.0017,"dx":0.0017,"nx":28,"ny":28,"refTime":"2025-08-05T03:00:00:Z","depth":"2","parameterNumber":2,"parameterNumberName":"U-component_of_CURRENTS"},"data":[0,0,0,0,0,0,0,0,0,0,0,0,0,0,0,0,0,0,0,0,0,0,0,0,0,0,0,0,0,0,0,0,0,0,0,0,0,0,0,0,0,0,0,0,0,0,0,0,0,0,0,0,0,0,0,0,0,0,0.2823,0.2823,0,0.2822,0.2822,0.2822,0.2808,0.2808,0.2808,0.2807,0.28,0.2799,0.2799,0,0,0,0,0,0,0,0,0,0,0,0,0,0.2828,0.2828,0.2823,0.2823,0.2823,0.2822,0.2822,0.2822,0.2808,0.2808,0.2808,0.2807,0.28,0.2799,0.2799,0,0,0,0,0,0,0,0,0,0,0,0,0,0.2824,0.2828,0.2823,0.2818,0.2818,0.2822,0.2822,0.2822,0.2808,0.2808,0.2808,0.2807,0.28,0.2799,0.2799,0.2802,0,0,0.2799,0.2799,0,0,0,0,0,0,0,0,0.2824,0.2823,0.2818,0.2818,0.2818,0.2817,0.2821,0.2816,0.2808,0.2809,0.2807,0.2807,0.2807,0.2806,0.2803,0.2802,0.2801,0.2799,0.2799,0.2799,0.2799,0,0,0,0,0,0,0,0.2824,0.2824,0.282,0.2819,0.2819,0.2822,0.2821,0.282,0.2807,0.2809,0.2808,0.2813,0.2806,0.2803,0.2802,0.2801,0.2799,0.2799,0.2799,0.2799,0.2861,0.2862,0,0,0,0,0,0,0.2829,0.2824,0.282,0.282,0.2824,0.2822,0.282,0.2816,0.2807,0.2806,0.2813,0.2812,0.2803,0.2803,0.2802,0.2854,0.2799,0.2799,0.2799,0.2859,0.2861,0.2863,0,0,0,0,0,0,0.2829,0.2828,0.282,0.2825,0.2824,0.2822,0.2817,0.2816,0.2825,0.281,0.2809,0.2825,0.2803,0.2802,0.2818,0.2851,0.2799,0.2798,0.2857,0.286,0.2862,0.2926,0,0,0,0,0,0,0.2829,0.2828,0.2831,0.2824,0.2824,0.2833,0.2817,0.2816,0.2828,0.2827,0.282,0.2818,0.2803,0.2819,0.2818,0.285,0.2798,0.2855,0.2858,0.2861,0.2921,0.293,0.2938,0,0,0,0,0,0.2829,0.2831,0.2831,0.2831,0.2826,0.2835,0.2835,0.2831,0.2829,0.2837,0.2837,0.2819,0.2839,0.282,0.2819,0.2852,0.2853,0.2857,0.2861,0.2918,0.2928,0.2937,0,0,0,0,0,0,0.2833,0.283,0.283,0.283,0.2839,0.2833,0.2842,0.2842,0.2848,0.285,0.2834,0.2833,0.2863,0.285,0.2829,0.2881,0.2846,0.285,0.289,0.29,0.2908,0.2922,0.2798,0,0,0,0,0,0.2837,0.2838,0.284,0.2843,0.2849,0.285,0.2855,0.2856,0.2859,0.2861,0.2857,0.2861,0.2877,0.2882,0.2887,0.291,0.2923,0.2933,0.2942,0.2948,0.2961,0.3018,0.3033,0.2876,0.2876,0.2876,0,0,0.2838,0.2839,0.2839,0.2846,0.285,0.2866,0.2852,0.2866,0.2887,0.286,0.2885,0.2889,0.2891,0.292,0.2932,0.2913,0.3001,0.2953,0.2959,0.2969,0.3024,0.3039,0.3053,0.2878,0.2878,0.2877,0,0,0.2845,0.2846,0.2851,0.2862,0.2878,0.2885,0.2895,0.2901,0.2912,0.2937,0.2932,0.2959,0.2966,0.2982,0.299,0.3048,0.3044,0.305,0.31,0.3155,0.3168,0.318,0.3219,0.3234,0.3052,0.3052,0.3052,0,0.2851,0.2852,0.2857,0.2871,0.2882,0.2898,0.2914,0.2934,0.2947,0.2966,0.2954,0.3003,0.3001,0.3054,0.3076,0.3067,0.3092,0.3059,0.3166,0.3178,0.3189,0.3226,0.3241,0.3055,0.3055,0.3055,0.3054,0,0.2858,0.2869,0.2876,0.2898,0.2916,0.2932,0.2961,0.2988,0.3006,0.3026,0.308,0.3087,0.3117,0.3127,0.3118,0.32,0.3191,0.3171,0.314,0.3209,0.3243,0.3258,0.3061,0.3059,0.3058,0.3057,0,0,0.2841,0.2874,0.2876,0.289,0.293,0.2941,0.2994,0.304,0.3085,0.3111,0.3171,0.3204,0.3217,0.3228,0.323,0.3277,0.3375,0.3263,0.3265,0.33,0.3497,0.3415,0.3423,0.3378,0.3381,0.3384,0.3489,0,0.2844,0.2867,0.2889,0.2922,0.2936,0.2975,0.3024,0.3075,0.3124,0.3191,0.3228,0.3285,0.3254,0.3284,0.3328,0.3372,0.3419,0.3348,0.3427,0.3429,0.3346,0.3439,0.3146,0.3209,0.3504,0.3507,0.3508,0,0.2834,0.2854,0.2879,0.2931,0.2943,0.2975,0.3055,0.3106,0.3211,0.3255,0.3324,0.3359,0.3445,0.3407,0.3514,0.3473,0.3495,0.3517,0.3521,0.3433,0.3375,0.3189,0.3225,0.3533,0.3531,0.3529,0.3528,0,0.2797,0.2843,0.2861,0.2876,0.2944,0.2974,0.3024,0.3122,0.3181,0.3313,0.3373,0.3464,0.3525,0.3578,0.3616,0.3584,0.3729,0.3685,0.3627,0.362,0.338,0.3348,0.3763,0.3763,0.3763,0.3763,0.3762,0,0.2775,0.2789,0.2846,0.2854,0.2899,0.2958,0.3031,0.3103,0.3224,0.3306,0.3404,0.3483,0.3575,0.3655,0.3672,0.3703,0.3773,0.3662,0.3655,0.3393,0.3362,0.3642,0.3626,0.3767,0.3766,0.3765,0.3764,0,0.2721,0.2757,0.2782,0.2852,0.2877,0.2912,0.3021,0.308,0.3207,0.3323,0.3372,0.3529,0.364,0.3707,0.3812,0.3766,0.3809,0.3793,0.3476,0.3428,0.3648,0.3635,0.3754,0.3752,0.375,0.3749,0.3748,0,0.2692,0.2699,0.2765,0.2785,0.2815,0.288,0.2927,0.3056,0.3122,0.3334,0.338,0.3547,0.362,0.3746,0.3721,0.3746,0.381,0.3472,0.3352,0.3673,0.3654,0.3643,0.3632,0.3061,0.3054,0.3049,0.3045,0,0.2645,0.267,0.2695,0.2735,0.2775,0.2817,0.2894,0.2934,0.3094,0.3192,0.3322,0.3411,0.3543,0.3445,0.3488,0.3454,0.3446,0.3363,0.3803,0.3106,0.3028,0.3006,0.3017,0.2996,0.3001,0.3005,0.3007,0.3009,0.2611,0.2614,0.2649,0.2672,0.2715,0.2726,0.2716,0.28,0.2871,0.2972,0.3151,0.3181,0.3237,0.3155,0.3065,0.2986,0.3221,0.306,0.3073,0.3093,0.2992,0.2915,0.2843,0.2847,0.285,0.2853,0.2855,0,0.2558,0.2565,0.2584,0.259,0.2577,0.2639,0.2667,0.2622,0.2628,0.2765,0.2846,0.2658,0.2611,0.2659,0.2464,0.2462,0.2401,0.2357,0.2249,0.2301,0.2346,0.2202,0.1846,0.1843,0.1839,0.1836,0,0,0.2533,0.2513,0.2505,0.2441,0.2444,0.2371,0.2349,0.2308,0.234,0.2322,0.2322,0.2538,0.261,0.2211,0.2155,0.1965,0.2112,0.1883,0.2702,0.2629,0.267,0.277,0.2611,0,0,0,0,0]},{"header":{"parameterUnit":"m.s-1","parameterCategory":2,"la1":30.2991,"la2":30.254,"lo1":-89.0895,"lo2":-89.0444,"dy":0.0017,"dx":0.0017,"nx":28,"ny":28,"refTime":"2025-08-05T03:00:00:Z","depth":"2","parameterNumber":3,"parameterNumberName":"V-component_of_CURRENTS"},"data":[0,0,0,0,0,0,0,0,0,0,0,0,0,0,0,0,0,0,0,0,0,0,0,0,0,0,0,0,0,0,0,0,0,0,0,0,0,0,0,0,0,0,0,0,0,0,0,0,0,0,0,0,0,0,0,0,0,0,0.0192,0.0192,0,0.0157,0.0157,0.0156,0.0133,0.0133,0.0133,0.0133,0.009,0.0089,0.0088,0,0,0,0,0,0,0,0,0,0,0,0,0,0.0199,0.0199,0.0192,0.0192,0.0191,0.0157,0.0157,0.0156,0.0133,0.0133,0.0133,0.0133,0.009,0.0089,0.0088,0,0,0,0,0,0,0,0,0,0,0,0,0,0.0183,0.0199,0.0192,0.0176,0.0174,0.0158,0.0157,0.0156,0.0133,0.0133,0.0133,0.0132,0.0091,0.0089,0.0088,0.0081,0,0,0.0083,0.0082,0,0,0,0,0,0,0,0,0.0184,0.0183,0.0179,0.0177,0.0175,0.015,0.0144,0.0131,0.0133,0.0148,0.0133,0.0132,0.011,0.0107,0.01,0.0079,0.0078,0.0083,0.0082,0.0081,0.0081,0,0,0,0,0,0,0,0.0185,0.0184,0.0178,0.0178,0.0176,0.0157,0.0155,0.0141,0.013,0.0147,0.0145,0.0142,0.0109,0.0101,0.0099,0.0077,0.0083,0.0082,0.0081,0.008,0.0058,0.0058,0,0,0,0,0,0,0.0193,0.0185,0.0179,0.0177,0.018,0.0158,0.0155,0.0158,0.013,0.0126,0.0142,0.0141,0.0104,0.01,0.0097,0.0108,0.0081,0.008,0.0079,0.0058,0.0058,0.0059,0,0,0,0,0,0,0.0193,0.0193,0.018,0.018,0.0177,0.0158,0.0161,0.0157,0.0153,0.0127,0.0122,0.0143,0.0104,0.0099,0.0089,0.0106,0.0079,0.0078,0.0057,0.0058,0.0058,0.0117,0,0,0,0,0,0,0.0194,0.0194,0.0197,0.0181,0.0178,0.018,0.0161,0.0156,0.0152,0.015,0.0126,0.0121,0.0103,0.0092,0.0088,0.0103,0.0077,0.0057,0.0058,0.0058,0.0115,0.012,0.0124,0,0,0,0,0,0.0194,0.0205,0.0198,0.0197,0.0184,0.018,0.0177,0.0161,0.0152,0.0156,0.0137,0.0122,0.0093,0.0091,0.0086,0.0101,0.0057,0.0057,0.0058,0.0113,0.0119,0.0124,0,0,0,0,0,0,0.0207,0.0203,0.0195,0.0202,0.0195,0.0177,0.0177,0.0166,0.0154,0.0151,0.0125,0.012,0.0116,0.0099,0.0097,0.0096,0.0073,0.0073,0.0116,0.0122,0.0126,0.0144,0.0075,0,0,0,0,0,0.0212,0.022,0.021,0.0214,0.0213,0.0195,0.0191,0.0182,0.0168,0.0163,0.0146,0.0127,0.0115,0.0111,0.0094,0.0095,0.0073,0.0101,0.0105,0.011,0.012,0.0097,0.0101,0.0061,0.0061,0.0061,0,0,0.0216,0.0216,0.0219,0.0218,0.0209,0.022,0.0193,0.0191,0.0203,0.016,0.0167,0.014,0.0117,0.0117,0.0114,0.0106,0.0108,0.011,0.0114,0.0122,0.0098,0.0102,0.0106,0.0062,0.0062,0.0061,0,0,0.0237,0.0231,0.0247,0.0248,0.0243,0.0235,0.0238,0.0225,0.0223,0.0223,0.0195,0.0178,0.0162,0.0149,0.014,0.0159,0.0129,0.0154,0.0196,0.0174,0.0178,0.018,0.0153,0.0153,0.0161,0.0161,0.0161,0,0.0242,0.0265,0.025,0.0269,0.0279,0.0248,0.0273,0.0265,0.0251,0.0256,0.0234,0.0207,0.018,0.0186,0.0189,0.0171,0.0151,0.018,0.0181,0.0183,0.0185,0.0157,0.0156,0.0164,0.0163,0.0163,0.0163,0,0.028,0.0297,0.0307,0.0325,0.0332,0.0346,0.034,0.034,0.0329,0.0321,0.0319,0.0276,0.0263,0.0249,0.0224,0.0228,0.0206,0.0187,0.0171,0.0193,0.0161,0.0159,0.0168,0.0167,0.0166,0.0165,0,0,0.0298,0.033,0.0334,0.0362,0.0368,0.0382,0.0399,0.0414,0.0437,0.0404,0.0431,0.0387,0.0357,0.0344,0.0306,0.0284,0.0267,0.0245,0.0243,0.0225,0.0216,0.0187,0.0182,0.0248,0.0248,0.0248,0.0188,0,0.0335,0.0393,0.0395,0.0449,0.0482,0.0469,0.0497,0.0502,0.0497,0.0511,0.0463,0.0468,0.0397,0.0396,0.0357,0.0297,0.0265,0.0285,0.0192,0.019,0.0166,0.018,0.0192,0.0139,0.0186,0.0185,0.0185,0,0.0374,0.0414,0.0479,0.0534,0.0547,0.057,0.0614,0.0638,0.0639,0.0637,0.0616,0.0577,0.0539,0.0477,0.0374,0.0391,0.0308,0.025,0.0246,0.02,0.0157,0.0124,0.0132,0.0181,0.0181,0.0182,0.0182,0,0.0413,0.0472,0.0533,0.055,0.0602,0.0628,0.0656,0.0675,0.0721,0.0722,0.0745,0.0679,0.0665,0.0552,0.0413,0.0399,0.0299,0.0263,0.0156,0.0152,0.0136,0.0131,0.0188,0.0188,0.0188,0.0189,0.0189,0,0.046,0.0506,0.0556,0.059,0.0673,0.0686,0.0769,0.0781,0.0825,0.0899,0.0816,0.0847,0.0684,0.0601,0.0455,0.0302,0.0324,0.0168,0.0139,0.0155,0.0153,0.0168,0.0167,0.0186,0.0187,0.0187,0.0188,0,0.0495,0.0523,0.06,0.0666,0.0694,0.0756,0.0855,0.092,0.0939,0.1031,0.1041,0.0983,0.0877,0.0698,0.0525,0.0374,0.0222,0.0158,0.0184,0.0158,0.0077,0.008,0.0038,0.0036,0.0035,0.0034,0.0033,0,0.0521,0.0563,0.0659,0.0719,0.0752,0.0846,0.0924,0.0977,0.1059,0.1123,0.1178,0.1101,0.1065,0.0782,0.0514,0.0258,0.0221,0.0088,0.0056,0.0089,0.0064,0.0068,0.0072,0.0052,0.0051,0.0051,0.005,0,0.0574,0.0602,0.0671,0.0794,0.0882,0.0997,0.1107,0.1187,0.127,0.1338,0.1406,0.1379,0.1115,0.0856,0.0492,0.031,0.0127,0.0069,0.0107,0.0089,0.0097,0.0075,0.0079,0.0046,0.0046,0.0047,0.0047,0.0047,0.0614,0.0672,0.0761,0.088,0.099,0.1131,0.1233,0.1353,0.1488,0.1599,0.1569,0.1528,0.1228,0.0763,0.0442,0.0096,0.0116,-0.0016,-0.0012,-0.0009,0.0005,0.0011,-0.0055,-0.0055,-0.0055,-0.0055,-0.0055,0,0.0674,0.0739,0.0846,0.0986,0.1112,0.1166,0.1349,0.145,0.1609,0.1699,0.1746,0.1457,0.1157,0.0803,0.0296,-0.0003,-0.0027,-0.0109,-0.007,-0.0063,-0.0058,-0.0045,-0.012,-0.0121,-0.0122,-0.0122,0,0,0.0706,0.0811,0.0864,0.1062,0.1167,0.1339,0.1447,0.159,0.1687,0.1772,0.1753,0.1697,0.1264,0.0889,0.0476,0.018,0.0126,0.0113,0.0196,0.0298,0.0307,0.0024,0.0054,0,0,0,0,0]}],[{"header":{"parameterUnit":"m.s-1","parameterCategory":2,"la1":30.2991,"la2":30.254,"lo1":-89.0895,"lo2":-89.0444,"dy":0.0017,"dx":0.0017,"nx":28,"ny":28,"refTime":"2025-08-05T03:00:00:Z","depth":"4","parameterNumber":2,"parameterNumberName":"U-component_of_CURRENTS"},"data":[0,0,0,0,0,0,0,0,0,0,0,0,0,0,0,0,0,0,0,0,0,0,0,0,0,0,0,0,0,0,0,0,0,0,0,0,0,0,0,0,0,0,0,0,0,0,0,0,0,0,0,0,0,0,0,0,0,0,0.1844,0.1845,0,0.1895,0.1895,0.1895,0.1945,0.1946,0.1947,0.1947,0.2012,0.2013,0.2013,0,0,0,0,0,0,0,0,0,0,0,0,0,0.1784,0.1785,0.1844,0.1845,0.1846,0.1895,0.1895,0.1895,0.1945,0.1946,0.1947,0.1948,0.2011,0.2012,0.2014,0,0,0,0,0,0,0,0,0,0,0,0,0,0.1818,0.1785,0.1844,0.1878,0.1882,0.1894,0.1895,0.1896,0.1945,0.1946,0.1947,0.1948,0.2011,0.2012,0.2014,0.1996,0,0,0.2018,0.2018,0,0,0,0,0,0,0,0,0.1816,0.1819,0.1872,0.1876,0.188,0.1917,0.1898,0.1931,0.1944,0.1918,0.1947,0.1949,0.1982,0.1986,0.1989,0.1999,0.2001,0.2018,0.2019,0.2019,0.202,0,0,0,0,0,0,0,0.1813,0.1818,0.1862,0.1873,0.1878,0.1889,0.1895,0.1904,0.194,0.192,0.1925,0.1934,0.1984,0.1987,0.1991,0.2002,0.2018,0.2019,0.202,0.202,0.2123,0.2125,0,0,0,0,0,0,0.1811,0.1815,0.186,0.1863,0.1853,0.1889,0.1896,0.1902,0.194,0.1948,0.1933,0.1936,0.1984,0.1989,0.1993,0.2084,0.2019,0.2021,0.2021,0.2121,0.2124,0.2126,0,0,0,0,0,0,0.1809,0.1814,0.1858,0.1843,0.1849,0.1889,0.1895,0.1902,0.1947,0.195,0.1958,0.1976,0.1985,0.1991,0.2039,0.2083,0.2021,0.2022,0.2119,0.2122,0.2125,0.2195,0,0,0,0,0,0,0.1807,0.1813,0.1836,0.1842,0.185,0.1891,0.1895,0.1902,0.1949,0.1955,0.1988,0.1993,0.1987,0.2038,0.2041,0.2084,0.2023,0.2117,0.212,0.2124,0.2191,0.22,0.2209,0,0,0,0,0,0.1805,0.1822,0.1837,0.1844,0.1874,0.1893,0.1898,0.1928,0.195,0.1973,0.2002,0.1994,0.2063,0.204,0.2043,0.2088,0.2115,0.2119,0.2123,0.2187,0.2198,0.2208,0,0,0,0,0,0,0.181,0.1829,0.1846,0.187,0.1895,0.1903,0.1933,0.1951,0.1991,0.2011,0.2013,0.202,0.208,0.2074,0.2048,0.2129,0.209,0.2095,0.2137,0.2148,0.2157,0.2161,0.2024,0,0,0,0,0,0.182,0.1843,0.186,0.1886,0.1901,0.1926,0.1947,0.1967,0.1992,0.2013,0.2036,0.2065,0.2092,0.2114,0.2131,0.2171,0.2174,0.2204,0.2213,0.2221,0.2228,0.2273,0.2287,0.214,0.214,0.214,0,0,0.1831,0.1846,0.1861,0.1891,0.1914,0.1939,0.1943,0.1984,0.2018,0.2012,0.2079,0.2099,0.2111,0.2159,0.2186,0.2165,0.2266,0.2226,0.2233,0.2235,0.2279,0.2293,0.2306,0.2143,0.2142,0.2142,0,0,0.1848,0.1878,0.19,0.1922,0.1964,0.1978,0.2,0.2032,0.2066,0.2119,0.2131,0.2179,0.2218,0.2235,0.2247,0.2317,0.2312,0.2331,0.2381,0.2426,0.2438,0.2449,0.2474,0.2486,0.2336,0.2336,0.2336,0,0.1866,0.1888,0.1911,0.1936,0.1961,0.2,0.2028,0.2064,0.2113,0.2145,0.2156,0.2238,0.2252,0.2309,0.2339,0.2338,0.2358,0.2337,0.2438,0.2448,0.2458,0.2481,0.2493,0.234,0.2339,0.2339,0.2339,0,0.1881,0.1918,0.1935,0.1979,0.201,0.2044,0.2086,0.2137,0.2186,0.2219,0.2302,0.2326,0.2375,0.2392,0.239,0.2471,0.246,0.2443,0.2408,0.2477,0.2496,0.2509,0.2345,0.2344,0.2343,0.2342,0,0,0.1868,0.1934,0.1945,0.1973,0.2037,0.2058,0.2128,0.219,0.2248,0.2312,0.2381,0.2441,0.247,0.2486,0.2498,0.2539,0.2628,0.2532,0.2532,0.2552,0.2727,0.2545,0.2541,0.2637,0.2639,0.2641,0.2712,0,0.1878,0.1925,0.1959,0.2019,0.2045,0.2105,0.2164,0.2233,0.23,0.2379,0.2433,0.2506,0.2502,0.2543,0.2587,0.2622,0.2664,0.261,0.266,0.2661,0.2488,0.255,0.2649,0.2721,0.2724,0.2726,0.2727,0,0.187,0.1906,0.196,0.2038,0.2058,0.2109,0.2209,0.2269,0.2383,0.2441,0.2525,0.257,0.2659,0.264,0.2739,0.2711,0.2731,0.2746,0.2749,0.2561,0.2501,0.2637,0.2748,0.2747,0.2745,0.2744,0.2742,0,0.1824,0.1903,0.1949,0.1974,0.207,0.2122,0.2187,0.2296,0.2357,0.2495,0.2554,0.2656,0.2722,0.2773,0.2815,0.2796,0.2906,0.2875,0.2726,0.2713,0.2824,0.2811,0.294,0.294,0.294,0.294,0.294,0,0.1791,0.1834,0.1941,0.1963,0.2034,0.2113,0.2203,0.2286,0.2407,0.2478,0.2591,0.2651,0.2766,0.2832,0.2852,0.2823,0.2939,0.2742,0.2722,0.2852,0.2842,0.2832,0.2819,0.2943,0.2942,0.2942,0.2941,0,0.1723,0.1794,0.1853,0.1969,0.2012,0.2068,0.2202,0.2254,0.2392,0.2487,0.2537,0.2684,0.2768,0.2842,0.2931,0.2848,0.2851,0.281,0.2952,0.2937,0.2619,0.2609,0.2643,0.2638,0.2633,0.2629,0.2625,0,0.1685,0.1712,0.1844,0.188,0.194,0.2035,0.2089,0.2235,0.2286,0.2478,0.2502,0.2646,0.272,0.2697,0.2796,0.281,0.2776,0.2748,0.267,0.2613,0.2592,0.2589,0.2585,0.2618,0.2616,0.2615,0.2614,0,0.1613,0.1682,0.173,0.1806,0.1873,0.193,0.2023,0.2046,0.2204,0.2351,0.2406,0.2449,0.2534,0.2591,0.2619,0.2626,0.2747,0.2696,0.2705,0.2632,0.2582,0.2565,0.2567,0.2597,0.2599,0.2601,0.2602,0,0.1566,0.158,0.1655,0.1705,0.178,0.1792,0.1859,0.1911,0.1983,0.2187,0.2208,0.2363,0.2514,0.2497,0.253,0.2516,0.2471,0.2371,0.2396,0.2416,0.2306,0.2207,0.2095,0,0,0,0,0,0.1505,0.1501,0.1539,0.1576,0.1643,0.1689,0.1792,0.1859,0.2015,0.1992,0.2091,0.216,0.221,0.2299,0.2238,0.2427,0.2479,0.2343,0.2376,0.2503,0.2523,0.2413,0,0,0,0,0,0,0.1458,0.1493,0.1494,0.1457,0.146,0.1512,0.1572,0.1678,0.1674,0.1848,0.1892,0.2024,0.2113,0.2227,0.2199,0.2222,0.2193,0.2446,0.2439,0.2492,0.251,0.2525,0.2419,0,0,0,0,0]},{"header":{"parameterUnit":"m.s-1","parameterCategory":2,"la1":30.2991,"la2":30.254,"lo1":-89.0895,"lo2":-89.0444,"dy":0.0017,"dx":0.0017,"nx":28,"ny":28,"refTime":"2025-08-05T03:00:00:Z","depth":"4","parameterNumber":3,"parameterNumberName":"V-component_of_CURRENTS"},"data":[0,0,0,0,0,0,0,0,0,0,0,0,0,0,0,0,0,0,0,0,0,0,0,0,0,0,0,0,0,0,0,0,0,0,0,0,0,0,0,0,0,0,0,0,0,0,0,0,0,0,0,0,0,0,0,0,0,0,0.0143,0.0143,0,0.0121,0.0121,0.012,0.0107,0.0107,0.0107,0.0107,0.0079,0.0078,0.0078,0,0,0,0,0,0,0,0,0,0,0,0,0,0.0146,0.0146,0.0143,0.0143,0.0142,0.0121,0.0121,0.012,0.0107,0.0107,0.0107,0.0107,0.0079,0.0078,0.0077,0,0,0,0,0,0,0,0,0,0,0,0,0,0.0136,0.0146,0.0143,0.0133,0.0132,0.0121,0.0121,0.012,0.0107,0.0107,0.0107,0.0107,0.0079,0.0078,0.0077,0.0072,0,0,0.0074,0.0074,0,0,0,0,0,0,0,0,0.0137,0.0136,0.0135,0.0134,0.0133,0.0117,0.0111,0.0104,0.0107,0.0116,0.0107,0.0107,0.0091,0.0089,0.0085,0.0071,0.007,0.0074,0.0073,0.0073,0.0073,0,0,0,0,0,0,0,0.0138,0.0137,0.0134,0.0135,0.0133,0.0121,0.012,0.011,0.0104,0.0115,0.0115,0.0112,0.0091,0.0086,0.0084,0.0069,0.0074,0.0073,0.0072,0.0072,0.0059,0.0059,0,0,0,0,0,0,0.0143,0.0138,0.0135,0.0133,0.0135,0.0121,0.012,0.0122,0.0104,0.0102,0.0113,0.0112,0.0088,0.0085,0.0083,0.0094,0.0073,0.0072,0.0071,0.0058,0.0059,0.0059,0,0,0,0,0,0,0.0143,0.0143,0.0136,0.0135,0.0133,0.0121,0.0124,0.0121,0.0121,0.0102,0.0099,0.0115,0.0088,0.0085,0.008,0.0092,0.0071,0.007,0.0058,0.0058,0.0059,0.0105,0,0,0,0,0,0,0.0143,0.0143,0.0147,0.0136,0.0133,0.0136,0.0124,0.0121,0.0119,0.0118,0.0103,0.01,0.0087,0.0082,0.0079,0.009,0.007,0.0058,0.0058,0.0059,0.0103,0.0106,0.011,0,0,0,0,0,0.0143,0.0152,0.0148,0.0147,0.014,0.0137,0.0135,0.0125,0.012,0.0124,0.0112,0.0101,0.0083,0.0081,0.0078,0.0089,0.0057,0.0058,0.0059,0.0101,0.0106,0.011,0,0,0,0,0,0,0.0153,0.0151,0.0146,0.0153,0.0148,0.0135,0.0137,0.013,0.0123,0.0122,0.0104,0.0101,0.01,0.0087,0.0086,0.0086,0.0068,0.0068,0.0102,0.0106,0.0109,0.0121,0.0069,0,0,0,0,0,0.0158,0.0165,0.0157,0.0162,0.0162,0.015,0.0147,0.0142,0.0133,0.013,0.012,0.0107,0.0099,0.0097,0.0086,0.0088,0.0065,0.0092,0.0096,0.0099,0.0105,0.0079,0.0081,0.0061,0.0061,0.0061,0,0,0.0162,0.0161,0.0164,0.0165,0.0159,0.0168,0.0149,0.0149,0.0159,0.0128,0.0137,0.0118,0.0102,0.0103,0.0102,0.0095,0.0091,0.0099,0.0102,0.0107,0.008,0.0082,0.0084,0.0061,0.0061,0.0061,0,0,0.0177,0.0174,0.0187,0.0188,0.0186,0.0181,0.0184,0.0176,0.0176,0.0179,0.0159,0.0147,0.0138,0.0128,0.0122,0.0137,0.0108,0.0134,0.0165,0.014,0.0141,0.0142,0.0111,0.0109,0.0139,0.0139,0.0139,0,0.0182,0.0199,0.0189,0.0203,0.0212,0.0192,0.0211,0.0207,0.0199,0.0203,0.0189,0.0171,0.0151,0.0155,0.0158,0.0146,0.0124,0.0152,0.0145,0.0145,0.0145,0.0114,0.0111,0.0141,0.0141,0.014,0.014,0,0.0208,0.0224,0.0232,0.0247,0.0253,0.0265,0.0262,0.0265,0.0259,0.0254,0.0253,0.0222,0.0214,0.0203,0.0186,0.0183,0.0164,0.015,0.0136,0.015,0.0116,0.0112,0.0144,0.0143,0.0143,0.0142,0,0,0.022,0.0247,0.0251,0.0273,0.0281,0.0293,0.0308,0.0321,0.0339,0.0316,0.0334,0.0305,0.0283,0.0273,0.0245,0.0221,0.0196,0.0191,0.0188,0.0164,0.0137,0.0116,0.0109,0.0182,0.0182,0.0181,0.011,0,0.0247,0.0291,0.0295,0.0339,0.0364,0.0359,0.0382,0.0388,0.0385,0.0394,0.0356,0.036,0.0313,0.0311,0.0277,0.0221,0.0189,0.0217,0.0123,0.0121,0.0103,0.0105,0.0181,0.0107,0.0106,0.0105,0.0105,0,0.0273,0.0304,0.0356,0.0402,0.0413,0.0435,0.0472,0.0492,0.0491,0.049,0.0473,0.044,0.0404,0.0362,0.0267,0.0287,0.0217,0.0164,0.016,0.0124,0.0093,0.0089,0.0098,0.0098,0.0099,0.0099,0.01,0,0.0297,0.0346,0.0395,0.0409,0.0454,0.0479,0.0506,0.0522,0.0558,0.0553,0.0565,0.051,0.0494,0.0398,0.028,0.0276,0.0169,0.0149,0.0061,0.0058,0.0078,0.0078,0.0079,0.0079,0.0079,0.0079,0.008,0,0.0326,0.0365,0.0412,0.044,0.0509,0.0524,0.0592,0.0605,0.0637,0.0685,0.0621,0.0628,0.0503,0.0422,0.0304,0.0171,0.0183,0.0066,0.0041,0.0098,0.0101,0.0075,0.0075,0.0077,0.0077,0.0078,0.0078,0,0.0345,0.0373,0.0434,0.0495,0.0523,0.0575,0.0662,0.071,0.0725,0.0782,0.0785,0.0725,0.0619,0.0475,0.0322,0.0214,0.008,0.0028,0.0099,0.0078,-0.0021,-0.0017,-0.0073,-0.0074,-0.0075,-0.0076,-0.0077,0,0.0358,0.0391,0.0479,0.053,0.0563,0.0645,0.0709,0.0756,0.0811,0.0839,0.0866,0.0785,0.072,0.0489,0.0327,0.0097,0.0059,-0.0018,-0.0023,-0.0016,-0.0035,-0.003,-0.0025,-0.0079,-0.0079,-0.0079,-0.008,0,0.0387,0.0417,0.0472,0.0578,0.0654,0.0748,0.0835,0.0879,0.0937,0.0947,0.0936,0.0814,0.0693,0.0501,0.0321,0.0153,0.0028,-0.003,-0.0029,-0.0035,-0.0023,-0.0041,-0.0034,-0.0083,-0.0083,-0.0082,-0.0082,0,0.041,0.0453,0.0528,0.0623,0.0722,0.0819,0.0865,0.0928,0.098,0.1,0.0995,0.0855,0.0783,0.053,0.0363,0.0196,0.0147,0.0081,0.0075,0.0077,0.0134,0.0171,0.0152,0,0,0,0,0,0.0434,0.0485,0.057,0.0673,0.0771,0.0834,0.0938,0.0977,0.1022,0.1026,0.1015,0.0899,0.0658,0.0553,0.0384,0.0325,0.0106,0.0117,0.0025,-0.0104,-0.01,-0.0062,0,0,0,0,0,0,0.0449,0.0527,0.0568,0.0696,0.0772,0.0888,0.0957,0.0995,0.0994,0.1009,0.0888,0.0837,0.0605,0.0756,0.0374,0.0324,0.0236,0.001,0.0006,-0.0107,-0.0103,-0.0099,-0.0059,0,0,0,0,0]}]]